This is the latest recevied weather packets stored in our database for station/object VK3BYD-3. If no packets are shown the sender has not sent any weather packets the latest 10 day(s).
| Time | Temp. | Humidity | Pressure | Rain* | Wind** | Luminosity | Snow |
|---|---|---|---|---|---|---|---|
| 1777944755 | 15.56° C | 77% | 1020.1 hPa | 0 mm | - | - | - |
| 1777943856 | 15° C | 81% | 1020.2 hPa | 0 mm | - | - | - |
| 1777942956 | 14.44° C | 82% | 1020.3 hPa | 0 mm | - | - | - |
| 1777942053 | 14.44° C | 82% | 1020.2 hPa | 0 mm | - | - | - |
| 1777941150 | 14.44° C | 84% | 1020.2 hPa | 0 mm | - | - | - |
| 1777940250 | 13.89° C | 87% | 1020.2 hPa | 0 mm | - | - | - |
| 1777939350 | 13.33° C | 87% | 1020.1 hPa | 0 mm | - | - | - |
| 1777938447 | 12.78° C | 90% | 1019.9 hPa | 0 mm | - | - | - |
| 1777937545 | 12.22° C | 90% | 1020 hPa | 0 mm | - | - | - |
| 1777936638 | 12.22° C | 93% | 1020 hPa | 0 mm | - | - | - |
| 1777935736 | 11.67° C | 94% | 1019.9 hPa | 0 mm | - | - | - |
| 1777934835 | 11.11° C | 94% | 1019.8 hPa | 0 mm | - | - | - |
| 1777933982 | 11.11° C | 96% | 1019.5 hPa | 0 mm | - | - | - |
| 1777933035 | 11.11° C | 96% | 1019.4 hPa | 0 mm | - | - | - |
| 1777932131 | 11.11° C | 97% | 1019.2 hPa | 0 mm | - | - | - |
| 1777931231 | 10.56° C | 97% | 1018.9 hPa | 0 mm | - | - | - |
| 1777930331 | 10° C | 97% | 1018.7 hPa | 0 mm | - | - | - |
| 1777929431 | 9.44° C | 96% | 1018.6 hPa | 0 mm | - | - | - |
| 1777928532 | 8.89° C | 96% | 1018.3 hPa | 0 mm | - | - | - |
| 1777927631 | 8.33° C | 95% | 1018.2 hPa | 0 mm | - | - | - |
| 1777926731 | 8.33° C | 94% | 1018.1 hPa | 0 mm | - | - | - |
| 1777925831 | 8.89° C | 94% | 1017.8 hPa | 0 mm | - | - | - |
| 1777924931 | 9.44° C | 94% | 1017.6 hPa | 0 mm | - | - | - |
| 1777924030 | 10° C | 93% | 1017.5 hPa | 0 mm | - | - | - |
| 1777923131 | 10.56° C | 93% | 1017.6 hPa | 0 mm | - | - | - |
* Rain latest hour (hover to see other rain measurements)
** Current wind speed in m/s (hover to see current wind gust speed)